Regional Weather Roundup
Issued by NWS

Home | Current Version | Previous Version | Graphics & Text | Print | Product List | Glossary Off
Versions: 1 2 3 4 5 6 7 8 9 10 11 12 13 14 15 16 17 18 19 20 21 22 23 24 25 26 27 28 29 30 31 32 33 34 35 36 37 38 39 40 41 42 43 44 45 46 47 48 49 50

000
ASUS43 KDTX 011310
RWRMI
MICHIGAN HOURLY REGIONAL WEATHER ROUNDUP
NATIONAL WEATHER SERVICE DETROIT/PONTIAC MI
900 AM EDT MON SEP 01 2014

NOTE: "FAIR" INDICATES FEW OR NO CLOUDS BELOW 12,000 FEET WITH NO
SIGNIFICANT WEATHER AND/OR OBSTRUCTION TO VISIBILITY.

MIZ047>049-052>055-059>063-066>070-074>076-081>083-011400-
SOUTHEAST LOWER MICHIGAN

CITY           SKY/WX    TMP DP  RH WIND       PRES   REMARKS
ADRIAN         CLOUDY    71  69  93 SW7       29.92F FOG
ALMA           CLOUDY    69  68  96 S6        29.84F FOG
ANN ARBOR      FOG       70  68  94 S7        29.91F VSB 3/4
BAD AXE        SUNNY     71  71 100 S8        29.88F FOG
DETROIT CITY   CLOUDY    76  70  82 SW8       29.91F
DETROIT        CLOUDY    72  70  94 S7        29.92F FOG
FLINT          SUNNY     75  69  81 S7        29.88F
GROSSE ILE     PTSUNNY   73  72  94 S12       29.91S
HILLSDALE      LGT RAIN  71  71 100 S7        29.91S
HOWELL         CLOUDY    70  70  99 S8        29.89F FOG

CITY           SKY/WX    TMP DP  RH WIND       PRES   REMARKS
JACKSON        PTSUNNY   73  70  90 S9        29.89S
LAMBERTVILLE   MOSUNNY   73  70  88 SW6       29.92F
LANSING        CLOUDY    71  69  93 S9        29.87F FOG
LAPEER         NOT AVBL
MASON          CLOUDY    69  68  98 S7        29.88F FOG
MONROE         PTSUNNY   73  70  88 S6        29.91S
MT. CLEMENS    PTSUNNY   74  69  85 SW8       29.90F
PONTIAC        CLOUDY    71  68  90 S8        29.91S FOG
PORT HOPE        N/A     73  66  78 SW5       29.85F
PORT HURON     CLOUDY    72  72 100 S7        29.91S FOG
TRI CITIES     PTSUNNY   72  69  90 S8        29.86F FOG
YPSILANTI      CLOUDY    74  69  85 S7        29.92F HAZE
$$
MIZ043>046-050>051-056>058-064>065-071>073-077>080-011400-
SOUTHWEST LOWER MICHIGAN

CITY           SKY/WX    TMP DP  RH WIND       PRES   REMARKS
BATTLE CREEK   CLOUDY    72  69  90 S10       29.86F FOG
BENTON HARBOR  RAIN      72  70  93 S12       29.81F FOG
BIG RAPIDS     CLOUDY    69  69 100 SE8       29.80F FOG
COLDWATER      CLOUDY    73  71  93 S7        29.89S FOG
HOLLAND        CLOUDY    74  71  91 S12       29.80F
GRAND RAPIDS   MOSUNNY   74  74 100 S10       29.82F
KALAMAZOO      CLOUDY    72  69  90 S15G21    29.84F FOG
MARSHALL       CLOUDY    71  70  96 S7G21     29.87F FOG
MUSKEGON       CLOUDY    76  69  79 S14G21    29.77F
$$
MIZ016>042-011400-
NORTHERN LOWER MICHIGAN

CITY           SKY/WX    TMP DP  RH WIND       PRES   REMARKS
ALPENA         CLOUDY    65  65 100 S7        29.82F FOG
BEAVER ISLAND  MOSUNNY   70  66  88 S8G16     29.71F
BELLAIRE       PTSUNNY   73  67  81 S8        29.75F
CADILLAC       CLOUDY    69  68  99 S7        29.79F FOG
CHARLEVOIX     MOSUNNY   69  67  94 SE8       29.76F
FRANKFORT      SUNNY     74  68  80 S12       29.72F
GAYLORD        CLOUDY    65  64  97 S10       29.81F
GRAYLING       CLOUDY    68  68 100 SE8       29.82F FOG
HARBOR SPRINGS PTSUNNY   69  65  87 E6        29.75F
HOUGHTON LAKE  CLOUDY    67  66  97 SE7       29.83F FOG
MANISTEE       CLOUDY    70  66  88 SE5       29.74F
OSCODA         FOG       66  66 100 CALM      29.84F VSB<1/4
PELLSTON       MOSUNNY   66  64  93 SE8       29.76F
TRAVERSE CITY  MOSUNNY   73  67  81 SE6       29.72F
$$
MIZ007>008-015-011400-
EASTERN UPPER MICHIGAN

CITY           SKY/WX    TMP DP  RH WIND       PRES   REMARKS
KINROSS        CLOUDY    63  63 100 SE13      29.77F
MACKINAC ISLAN PTSUNNY   65  64  94 SE9G18    29.76F
NEWBERRY       CLOUDY    66  64  92 S15       29.71F
S. S. MARIE    CLOUDY    63  61  93 SE7       29.77F
$$
MIZ004>006-011>014-085-011400-
CENTRAL UPPER MICHIGAN

CITY           SKY/WX    TMP DP  RH WIND       PRES   REMARKS
MANISTIQUE     CLOUDY    66  65  97 CALM      29.68F FOG
ESCANABA       CLOUDY    68  64  88 S14       29.66S
MENOMINEE      CLOUDY    68  64  88 S9        29.65S
SAWYER-GWINN   CLOUDY    68  66  94 S13       29.65F
$$
MIZ001>003-009>011-084-011400-
WESTERN UPPER MICHIGAN

CITY           SKY/WX    TMP DP  RH WIND       PRES   REMARKS
IRON MOUNTAIN  PTSUNNY   68  65  90 S8        29.64F
HOUGHTON       LGT RAIN  67  62  84 W16G26    29.57R
COPPER HARBOR    N/A     66  62  87 W8        29.54S
$$

ABBREVIATIONS USED IN REMARKS
   TC - TEMPERATURE IN CELSIUS
  WCI - WIND CHILL INDEX
   HX - HEAT INDEX
  VSB - VISIBILITY



USA.gov is the U.S. government's official web portal to all federal, state and local government web resources and services.